Wind_Speed
13 14 13 12 11 10 8 7 5 6 5 4 4 3 1 1 3 4 4 4 4 4 3 4 5 6 5 4 3 3 3 4 4 5 5 4 4 4 5 6 5 5 6 7 8 9 9 10 8 6 6 7 8 10 10 11 11 11 12 10 9 10 10
14 15 13 12 11 10 9 8 6 5 4 4 3 3 2 2 3 3 2 4 6 5 4 4 5 5 4 4 3 2 2 2 3 3 3 4 4 3 3 4 4 4 5 7 8 8 10 11 9 7 8 7 8 9 9 10 10 10 11 11 10 10 10
15 13 12 12 11 10 9 9 7 5 3 3 3 4 4 3 3 3 1 3 5 6 4 5 5 5 4 4 3 2 2 1 2 2 3 3 4 5 3 3 4 3 4 6 7 7 9 10 9 9 9 8 9 9 9 10 10 10 9 10 10 9 9
15 13 12 12 11 10 9 8 7 5 4 4 4 5 5 5 4 4 2 2 3 4 4 5 5 4 4 4 4 3 2 1 0 1 2 2 3 6 5 3 4 3 3 5 5 6 8 9 8 9 9 8 9 9 9 9 9 9 9 9 9 8 9
14 13 12 12 11 9 8 7 6 6 5 4 4 5 6 6 5 4 3 2 3 3 4 5 5 4 4 3 4 5 4 3 3 2 3 3 4 5 5 4 4 4 4 4 5 5 8 9 9 9 8 8 8 8 8 9 9 8 9 9 9 8 8
13 12 12 11 10 8 7 6 5 5 5 5 5 5 6 6 5 5 4 3 4 5 4 5 6 6 5 4 5 5 5 5 6 5 5 6 7 7 7 7 6 6 7 6 6 7 8 9 9 9 8 7 8 8 8 8 8 8 8 8 8 7 7
13 12 12 11 9 8 6 6 5 5 5 6 6 5 5 6 6 7 7 6 5 5 5 7 9 9 7 6 8 8 7 7 7 7 7 8 9 9 9 9 8 7 7 7 6 7 8 8 8 8 8 7 6 7 8 8 7 7 8 8 7 6 5
12 12 11 9 9 8 6 6 6 6 6 6 6 7 7 7 8 9 7 7 7 6 7 8 9 11 10 8 8 8 8 7 7 6 6 7 8 10 10 9 8 8 8 7 6 7 7 7 7 6 7 6 5 6 7 7 7 7 6 6 6 6 6
11 11 10 9 8 7 7 6 6 6 7 7 7 8 8 9 10 10 9 8 8 8 9 9 9 10 10 9 8 8 7 7 7 7 6 7 7 10 11 10 9 9 9 9 8 8 9 7 7 6 5 5 6 6 6 6 6 6 5 4 5 5 5
11 11 10 10 8 7 6 6 6 8 8 8 8 9 10 11 10 9 8 8 8 8 8 8 9 10 10 10 10 10 9 9 9 9 9 9 9 10 12 11 10 9 10 10 9 10 10 9 7 6 4 3 3 4 6 5 5 5 4 4 5 5 5
11 11 11 10 9 7 5 5 7 9 9 9 10 11 11 11 9 8 7 7 8 8 8 8 8 9 9 9 10 9 10 10 9 10 10 11 11 12 12 11 11 11 10 10 11 11 11 10 8 6 5 3 2 2 5 6 6 5 4 4 4 4 4
11 10 10 9 8 5 3 6 8 9 9 10 11 12 11 10 9 8 7 7 7 8 8 8 8 8 8 9 9 9 9 9 9 10 11 11 12 13 13 13 13 13 12 11 11 11 11 10 8 6 6 5 4 5 4 6 6 6 4 3 2 2 3
10 11 10 8 6 3 3 8 10 10 10 11 11 11 10 9 8 8 8 7 8 8 8 9 9 10 10 10 9 9 10 10 10 11 11 12 12 12 13 13 13 13 11 9 9 9 9 9 8 7 6 6 5 7 6 5 6 6 4 2 2 1 4
12 12 9 7 7 5 6 11 12 11 12 11 11 11 9 9 9 8 8 8 9 9 10 11 11 11 11 11 11 12 12 11 10 11 12 12 12 11 10 10 11 10 9 8 7 6 6 7 6 6 6 5 5 5 4 5 6 5 2 3 2 1 5
14 12 8 6 8 7 8 12 12 12 13 12 12 11 10 10 9 8 9 8 9 10 11 12 12 12 12 13 14 14 12 9 10 12 12 10 10 10 9 8 8 7 7 8 7 4 4 4 3 4 5 4 4 4 3 3 3 3 1 3 0 3 4
13 11 9 8 10 9 10 13 12 12 13 12 12 11 11 11 10 10 9 9 9 10 10 12 12 12 13 14 14 14 12 10 11 12 11 8 8 9 9 7 7 7 6 7 8 6 5 4 2 3 4 3 4 4 3 3 2 1 1 1 1 2 2
12 11 10 11 12 11 11 13 12 12 12 12 12 11 11 12 11 11 10 9 10 10 10 11 11 11 12 12 12 12 12 11 11 10 9 7 7 7 7 7 7 7 7 8 8 6 6 6 4 3 3 3 3 5 5 4 1 0 1 2 2 2 3
11 11 12 14 13 12 12 12 12 13 12 12 13 12 12 12 12 12 11 11 11 10 10 11 11 11 11 11 10 10 10 10 10 10 9 9 9 8 8 7 8 8 8 8 7 6 6 7 5 4 4 3 2 4 5 3 1 1 1 2 4 6 6
11 12 14 14 12 12 12 12 13 13 12 13 13 13 13 13 13 12 12 12 12 11 11 11 11 11 11 11 11 10 10 10 10 9 9 10 10 9 9 9 8 9 9 8 8 8 8 9 8 7 7 6 6 6 5 3 2 2 2 3 4 6 7
10 11 12 13 12 12 12 12 13 13 13 13 14 14 13 14 14 13 12 12 13 12 12 12 12 12 12 12 12 12 12 11 10 10 10 9 9 10 10 10 10 10 10 10 10 10 11 11 10 9 9 10 12 11 7 5 4 4 4 3 5 6 6
9 10 11 12 12 13 12 13 13 13 13 14 14 14 14 14 14 14 13 13 13 13 14 13 13 13 13 13 13 13 13 12 12 12 12 12 11 12 11 11 11 11 11 11 11 11 11 11 10 10 9 9 13 13 7 6 6 6 5 5 6 7 7
8 9 11 12 13 14 14 14 14 14 14 14 15 14 14 14 15 14 14 15 15 15 15 15 15 15 14 14 14 14 14 14 13 13 13 13 14 14 14 14 14 13 14 14 13 12 12 11 9 9 9 9 11 11 8 8 7 6 7 8 8 8 9
6 6 8 9 11 12 13 14 15 14 14 14 14 15 14 14 15 15 15 16 16 17 17 17 18 19 18 16 15 15 15 16 15 15 15 14 15 15 15 16 16 16 18 18 16 14 14 13 10 11 13 11 10 10 10 9 8 7 8 9 9 9 9
5 5 5 6 7 8 9 11 13 15 15 15 15 15 16 16 16 16 16 17 17 19 20 21 22 22 21 20 19 18 18 18 17 17 17 17 17 18 18 18 17 18 20 20 20 18 16 15 13 14 15 14 13 12 11 10 8 8 9 9 8 9 9
4 4 4 4 5 7 9 9 11 13 16 18 18 18 19 18 17 16 17 18 18 20 22 22 22 22 22 23 22 21 20 19 19 20 20 21 21 21 22 20 18 19 19 19 20 20 18 17 16 15 15 15 14 14 14 13 11 9 9 8 7 7 8
2 2 3 4 5 7 9 10 11 12 15 18 20 20 20 19 19 18 19 19 19 19 20 20 20 21 22 22 23 22 21 20 20 21 23 24 23 22 21 19 17 18 18 18 19 19 18 16 15 14 14 14 15 16 16 16 15 13 12 12 9 7 8
2 1 2 3 3 6 7 9 12 13 14 16 18 19 19 20 20 21 22 22 22 22 22 21 21 22 22 22 23 23 23 20 20 21 23 24 23 19 16 14 12 12 15 16 15 13 13 13 12 12 12 13 15 16 16 17 17 16 15 14 12 11 12
3 1 1 2 3 5 6 8 11 13 14 15 16 18 19 19 20 21 22 22 22 23 24 23 23 24 23 23 25 27 26 24 24 25 25 26 24 19 13 9 8 9 11 12 10 10 12 12 10 10 10 13 15 16 17 18 17 15 14 14 14 14 15
3 2 1 2 3 5 7 9 10 11 14 15 15 17 19 19 22 24 23 23 24 24 24 24 25 25 25 25 26 26 24 23 23 23 22 20 18 14 9 8 8 8 9 11 10 10 12 10 9 9 10 12 15 16 18 18 16 15 15 15 15 15 16
4 3 3 3 4 4 6 8 9 10 13 14 14 16 17 17 20 22 23 25 26 24 25 26 26 26 25 24 22 20 17 17 16 15 14 13 11 10 11 11 10 9 10 11 9 9 10 9 8 8 9 11 14 16 16 16 16 16 16 16 16 16 17
5 5 5 4 5 5 6 7 9 10 12 13 14 14 15 16 17 17 19 21 22 21 22 22 21 20 19 18 17 16 14 12 12 12 12 10 10 11 13 11 10 10 10 9 7 7 8 7 6 7 8 11 13 14 14 15 15 16 16 16 17 18 18
7 7 6 6 6 7 7 8 9 10 12 13 13 14 15 15 16 17 18 19 19 19 18 16 15 16 16 16 16 17 14 12 12 13 12 10 10 12 12 10 11 11 10 8 8 8 8 7 8 8 8 9 9 11 13 13 13 14 16 16 18 19 20
8 8 9 9 9 9 9 10 10 11 12 13 14 14 14 15 17 18 18 17 18 16 14 14 14 15 15 15 16 17 15 13 13 13 12 11 10 10 11 11 11 11 9 8 8 8 8 10 11 11 10 9 10 12 14 13 11 12 15 16 18 19 20
13 13 14 14 13 13 12 12 13 13 13 14 15 17 17 17 18 19 18 17 17 15 14 14 15 15 14 15 16 16 15 14 12 12 12 12 10 8 10 11 10 10 9 9 8 8 9 11 13 13 13 14 15 17 18 16 13 13 15 16 16 15 14
20 21 21 20 18 16 15 15 15 15 16 17 17 19 19 18 17 17 17 16 15 16 16 15 15 16 16 16 16 16 17 16 13 12 12 12 10 10 10 11 10 10 10 9 9 9 10 12 15 15 14 15 17 18 18 16 14 13 12 11 10 10 9
23 23 22 21 20 19 18 17 16 17 18 19 19 19 19 18 17 17 18 17 15 17 19 18 17 17 17 17 18 18 18 18 16 14 12 11 11 13 13 12 10 11 11 10 9 9 10 12 14 15 14 15 16 16 16 14 12 11 10 9 10 10 9
23 21 20 20 20 20 19 19 19 19 19 20 21 21 20 20 19 20 21 19 17 17 20 22 21 19 18 18 18 18 18 19 18 16 13 10 13 16 16 13 11 11 11 10 10 10 11 12 13 14 15 14 15 15 13 11 10 9 9 10 10 8 7
Wind_Direction
151 151 148 149 153 155 149 139 137 132 132 141 139 118 75 67 99 94 89 100 107 113 139 168 160 158 166 186 207 193 199 201 215 220 191 193 219 210 209 209 191 171 163 164 163 157 146 141 141 128 111 108 102 93 90 92 96 99 96 88 82 81 79
153 148 147 151 152 150 144 138 139 143 154 163 161 139 109 90 94 90 98 113 112 109 117 138 140 146 157 170 196 207 214 218 219 213 181 190 191 159 181 193 177 174 168 165 168 160 148 145 146 140 128 115 102 96 92 91 91 91 93 91 84 81 80
148 144 147 149 145 143 139 141 146 152 169 184 188 163 134 133 125 107 118 126 117 115 120 124 119 132 155 160 172 197 220 228 225 197 175 190 162 128 136 148 147 178 173 163 173 169 153 147 148 148 139 123 107 97 90 88 87 85 83 86 86 82 79
151 149 151 146 139 139 137 140 147 149 164 193 201 183 161 155 141 126 130 123 116 115 113 105 95 113 153 160 157 153 154 142 139 174 166 192 150 129 124 122 142 170 163 159 165 163 157 152 148 142 134 122 111 105 101 96 91 87 83 81 80 76 77
158 153 148 143 140 141 139 138 148 159 172 187 185 181 176 162 144 133 126 120 148 148 125 112 106 110 123 143 149 141 135 119 99 106 118 111 113 119 113 104 122 120 101 117 121 121 143 148 142 134 128 121 113 111 111 104 97 90 84 78 76 72 69
157 152 146 145 142 143 146 146 153 162 169 174 165 170 176 163 151 146 144 167 189 186 164 137 123 113 105 108 114 115 120 112 104 105 104 104 102 96 90 86 87 83 75 82 86 89 111 127 130 128 126 123 121 123 122 114 107 95 84 74 72 70 63
153 153 150 148 145 147 153 149 152 164 173 174 162 164 172 170 175 176 176 180 179 180 170 145 128 117 106 106 108 106 108 108 111 109 101 101 100 93 90 86 84 83 80 83 83 86 100 116 124 126 124 124 129 135 134 126 112 96 86 72 62 64 51
153 154 153 156 152 154 156 152 159 167 171 171 170 180 185 179 173 168 162 153 143 137 131 124 123 123 118 117 123 124 117 113 114 111 106 109 109 105 100 92 91 92 88 87 88 95 102 110 123 125 122 128 134 132 127 120 106 92 88 74 55 48 26
157 154 159 164 158 159 159 157 164 163 164 170 179 187 176 159 151 147 144 141 137 132 124 116 118 123 119 119 134 140 127 118 118 114 116 122 126 122 110 96 95 97 94 93 97 106 101 95 114 121 115 127 130 125 122 113 100 88 82 73 52 42 26
158 157 169 170 161 161 156 157 167 169 172 176 179 175 159 149 147 148 153 155 152 147 137 127 124 123 117 119 132 139 133 131 131 128 128 129 129 123 108 94 91 96 97 97 100 109 103 93 108 112 99 116 124 130 144 131 102 93 87 75 57 38 23
164 168 178 171 160 156 152 162 172 174 179 180 177 170 161 159 159 158 163 166 165 163 154 144 135 127 122 126 131 133 134 133 134 136 137 136 133 125 114 106 106 109 109 108 108 107 97 87 93 92 85 96 70 92 153 151 116 98 89 83 79 61 42
180 183 181 170 161 156 163 173 171 172 178 178 176 173 167 166 165 163 162 160 162 168 165 159 150 140 135 134 129 129 134 135 139 142 139 138 136 131 125 118 115 114 110 109 110 104 95 88 86 82 82 91 66 56 103 148 133 112 106 101 84 59 41
196 190 185 186 185 178 190 180 172 172 172 171 175 174 168 165 163 159 154 148 151 156 158 155 151 146 137 125 120 127 130 127 129 134 133 134 132 126 125 123 120 114 103 99 102 101 103 100 91 85 82 85 81 69 76 109 117 115 114 88 73 24 359
204 194 193 210 199 182 185 182 176 172 168 170 175 171 167 167 164 158 151 145 145 147 150 149 143 139 134 128 128 129 122 115 122 133 134 132 129 122 121 126 130 123 108 103 99 89 95 98 89 91 91 86 91 86 85 102 112 116 87 42 104 193 356
208 204 208 210 193 185 184 182 181 174 168 171 171 167 171 171 165 161 156 150 147 145 147 146 140 138 140 141 139 131 122 121 135 142 137 133 141 143 136 136 145 144 134 125 114 106 115 105 90 111 107 97 106 97 87 106 127 139 99 20 302 231 345
204 211 222 202 186 189 186 183 185 178 171 170 167 168 177 173 167 166 162 158 156 150 151 150 145 146 148 146 145 141 137 142 149 148 141 139 155 161 158 164 175 181 177 153 142 155 162 141 127 141 137 130 138 143 147 143 141 155 179 314 303 224 294
197 204 212 194 183 187 189 186 185 178 175 174 170 174 179 174 170 172 169 169 167 163 165 162 153 152 153 152 155 156 154 157 157 151 146 149 163 172 174 183 192 195 193 179 171 181 181 168 160 160 167 176 183 192 183 161 136 313 240 263 296 296 314
196 195 193 188 185 188 191 189 185 182 181 180 178 178 179 176 176 177 176 177 179 176 177 173 164 166 167 163 164 167 166 169 168 163 165 172 179 184 184 189 199 201 197 193 187 185 187 184 171 158 171 182 193 197 188 175 177 227 251 269 279 300 317
193 191 189 190 191 192 195 194 190 188 187 186 186 183 182 182 181 181 181 183 186 186 186 184 179 181 183 180 180 181 181 185 184 180 186 191 191 194 194 193 202 206 202 199 194 192 199 198 184 183 195 188 185 201 206 211 233 229 247 276 280 294 307
189 193 194 197 197 195 198 198 195 194 193 192 191 187 187 188 185 184 186 188 190 190 190 190 188 188 191 192 195 195 195 198 195 190 195 198 200 205 202 198 204 211 208 203 204 211 219 218 212 225 234 210 208 230 235 215 231 240 234 261 282 289 296
187 194 196 199 200 195 197 201 199 197 197 198 198 194 193 194 191 189 190 194 196 196 196 197 196 196 195 197 200 202 203 201 197 201 206 202 203 210 210 207 210 214 217 217 215 217 229 236 232 241 253 229 222 238 236 210 227 239 239 258 277 283 288
183 193 194 199 205 201 199 205 206 203 203 203 203 201 200 201 201 198 198 200 201 202 204 204 204 204 199 200 204 204 207 207 203 210 216 212 214 218 217 216 218 218 223 231 232 226 233 242 231 225 240 236 230 233 224 219 232 239 250 263 271 276 280
173 185 189 192 201 203 202 208 209 207 206 207 207 206 206 207 209 207 206 207 206 207 206 204 208 211 206 203 205 204 210 216 214 217 220 220 224 227 226 226 229 230 232 239 244 239 240 244 230 222 232 233 228 225 220 221 230 241 253 262 272 278 279
164 176 183 186 193 197 202 211 213 208 206 207 209 210 209 209 212 213 214 215 214 214 214 212 216 221 219 215 215 216 221 224 222 223 227 229 231 238 238 232 230 233 235 239 243 241 241 242 237 235 238 236 231 227 225 221 219 238 259 265 272 276 273
151 168 176 184 197 201 202 210 216 212 208 207 209 214 217 215 214 216 219 220 220 224 227 227 230 235 233 230 230 231 234 234 232 233 238 242 246 248 243 238 241 244 241 240 242 241 238 239 240 241 240 239 239 237 236 232 219 220 238 249 263 274 271
154 182 189 189 207 216 211 211 217 218 217 218 219 223 227 226 223 222 224 224 222 226 232 233 236 239 238 236 238 239 240 240 242 245 246 248 251 248 242 245 253 251 243 241 241 237 236 237 238 240 239 240 243 242 241 240 231 223 227 236 251 268 264
114 164 218 217 230 236 224 219 225 226 226 229 231 231 231 233 232 231 232 233 231 232 236 237 238 240 241 242 244 245 244 240 237 242 246 250 253 251 247 252 251 235 231 236 233 226 231 235 230 233 241 242 244 244 240 238 237 235 237 246 258 264 264
75 77 249 241 246 249 241 234 234 235 236 239 240 240 240 240 241 239 239 238 237 237 239 240 239 239 242 245 247 249 250 247 245 249 255 261 263 258 250 248 243 225 219 223 217 204 214 227 225 228 242 245 245 244 238 235 239 242 245 255 264 267 272
26 27 347 275 261 255 251 247 241 240 246 248 247 250 252 250 246 244 242 242 242 241 242 243 244 244 244 246 249 250 250 249 250 254 256 258 257 249 234 225 224 218 212 217 217 207 209 226 236 237 242 241 239 241 240 238 242 246 250 259 268 274 281
343 336 319 303 283 260 253 254 248 243 248 252 251 254 258 255 247 242 241 245 246 246 244 245 249 250 247 244 243 240 236 234 237 240 238 234 229 225 220 212 202 196 207 220 222 212 217 233 242 237 234 233 237 245 246 242 243 248 255 264 274 281 285
327 316 306 299 285 269 261 259 256 252 252 253 253 254 255 254 247 240 238 240 239 237 237 238 240 240 235 230 225 214 210 214 215 216 218 211 207 216 218 210 197 192 204 220 221 216 225 226 212 212 220 226 236 248 250 244 244 251 260 270 278 283 285
308 300 292 286 283 279 271 264 261 258 254 251 252 251 248 244 242 238 237 237 231 227 228 225 222 221 215 209 204 200 199 204 206 208 205 194 201 218 217 207 207 209 214 226 227 225 229 211 188 194 211 217 224 240 250 250 247 255 268 276 280 282 283
295 290 280 274 275 275 270 266 262 257 255 252 248 246 242 238 238 238 238 238 231 223 221 216 208 206 205 199 196 198 200 202 204 204 196 186 199 223 224 215 217 221 227 232 229 228 227 207 189 188 201 212 216 225 240 252 256 261 271 277 282 287 294
280 279 275 273 273 271 267 265 261 257 254 251 249 248 242 236 239 241 238 236 229 220 218 214 205 203 204 200 202 207 203 199 202 204 197 189 189 209 226 228 225 226 230 231 229 231 227 210 201 201 205 211 216 223 237 255 265 267 273 282 289 295 303
278 277 277 276 274 270 266 263 261 259 255 251 253 254 244 234 237 239 232 227 223 221 224 221 213 215 214 208 211 213 204 199 202 200 198 195 183 188 217 231 229 225 228 231 230 230 224 218 219 224 222 219 221 229 242 258 267 269 275 284 286 285 289
278 277 276 275 272 269 267 262 258 256 254 251 250 251 244 236 233 230 225 220 217 223 230 231 224 225 225 219 217 214 206 204 202 196 199 201 189 196 221 235 230 225 229 234 235 232 228 224 223 227 230 229 232 239 247 257 265 269 271 271 272 278 282
278 274 271 270 268 265 262 259 256 253 251 250 246 243 240 238 232 226 225 225 221 223 232 235 232 231 229 220 213 210 208 207 205 201 199 193 193 210 230 236 229 230 235 239 243 242 237 231 227 229 232 234 240 247 254 261 265 268 274 278 282 283 278
Height
1528 1528 1529 1530 1531 1531 1532 1532 1533 1533 1534 1534 1534 1534 1534 1534 1534 1534 1534 1535 1536 1537 1537 1538 1538 1539 1540 1540 1540 1540 1540 1540 1541 1541 1542 1542 1542 1542 1543 1544 1545 1547 1549 1550 1550 1551 1551 1552 1554 1555 1556 1558 1559 1559 1560 1561 1562 1563 1564 1565 1566 1565 1564
1528 1528 1529 1529 1530 1530 1531 1532 1533 1533 1533 1533 1533 1534 1534 1534 1534 1534 1534 1535 1536 1537 1537 1537 1537 1538 1539 1539 1539 1539 1540 1540 1540 1541 1541 1541 1541 1542 1542 1543 1545 1546 1548 1550 1551 1551 1551 1552 1554 1556 1557 1558 1559 1559 1560 1561 1562 1563 1564 1565 1566 1566 1565
1528 1529 1529 1529 1530 1531 1531 1532 1532 1533 1533 1533 1533 1533 1534 1534 1534 1535 1535 1535 1535 1536 1537 1536 1537 1537 1538 1538 1539 1539 1539 1539 1540 1540 1540 1541 1541 1542 1542 1543 1545 1546 1547 1549 1551 1552 1552 1553 1555 1556 1557 1558 1559 1560 1561 1562 1563 1564 1564 1565 1566 1566 1566
1528 1529 1529 1530 1530 1531 1531 1532 1533 1533 1533 1532 1532 1532 1533 1533 1534 1535 1535 1535 1535 1536 1536 1536 1537 1537 1537 1538 1538 1539 1539 1539 1540 1540 1540 1541 1541 1542 1543 1544 1545 1546 1546 1548 1550 1552 1553 1554 1555 1557 1558 1559 1560 1561 1562 1563 1564 1564 1565 1565 1566 1566 1566
1528 1529 1529 1530 1531 1531 1532 1532 1533 1533 1533 1533 1533 1532 1533 1533 1533 1534 1535 1536 1536 1536 1536 1537 1537 1538 1538 1538 1538 1539 1539 1539 1540 1540 1541 1542 1542 1543 1544 1544 1545 1546 1547 1548 1550 1552 1553 1555 1556 1557 1558 1559 1560 1562 1563 1563 1564 1565 1566 1566 1567 1567 1567
1527 1529 1529 1530 1531 1532 1532 1533 1533 1534 1534 1534 1533 1533 1533 1533 1534 1535 1535 1536 1535 1535 1536 1536 1537 1538 1539 1539 1539 1540 1540 1540 1541 1541 1542 1542 1543 1544 1545 1546 1547 1548 1549 1550 1551 1553 1554 1555 1556 1557 1559 1560 1561 1562 1563 1564 1565 1566 1567 1567 1567 1567 1567
1527 1528 1529 1530 1531 1532 1533 1533 1534 1534 1534 1534 1534 1534 1533 1533 1534 1534 1535 1535 1535 1536 1536 1536 1537 1538 1540 1540 1540 1540 1541 1541 1542 1542 1543 1543 1544 1545 1546 1547 1549 1549 1550 1551 1552 1554 1555 1556 1557 1558 1559 1560 1561 1562 1563 1564 1565 1566 1567 1568 1568 1567 1567
1527 1528 1529 1530 1531 1532 1533 1533 1534 1535 1535 1535 1535 1534 1534 1534 1534 1534 1535 1535 1536 1536 1536 1537 1538 1538 1540 1540 1540 1541 1541 1542 1543 1543 1544 1544 1545 1546 1547 1549 1550 1551 1551 1552 1553 1554 1555 1557 1557 1558 1559 1561 1562 1562 1563 1564 1566 1567 1567 1568 1568 1567 1566
1527 1528 1529 1530 1531 1532 1533 1534 1534 1535 1535 1535 1535 1535 1535 1535 1535 1536 1536 1536 1537 1537 1537 1538 1539 1539 1540 1540 1540 1541 1542 1542 1543 1544 1544 1545 1546 1547 1548 1549 1551 1551 1552 1553 1553 1554 1555 1557 1558 1559 1560 1561 1562 1563 1564 1565 1566 1567 1568 1568 1568 1567 1567
1526 1528 1529 1530 1531 1532 1533 1534 1534 1535 1535 1535 1536 1536 1537 1537 1537 1537 1537 1537 1538 1538 1538 1539 1539 1540 1540 1540 1541 1541 1542 1543 1544 1544 1545 1546 1547 1548 1549 1550 1551 1552 1552 1553 1554 1555 1556 1557 1559 1560 1561 1562 1562 1563 1564 1565 1567 1568 1568 1568 1568 1568 1567
1526 1528 1528 1529 1531 1532 1533 1534 1534 1535 1535 1535 1536 1537 1538 1538 1538 1538 1538 1538 1538 1539 1539 1540 1540 1540 1541 1541 1541 1542 1543 1544 1545 1545 1546 1547 1548 1549 1550 1551 1552 1552 1553 1554 1555 1556 1557 1558 1559 1560 1561 1562 1562 1563 1564 1565 1567 1568 1568 1568 1569 1568 1568
1526 1527 1528 1529 1531 1532 1533 1534 1535 1535 1536 1536 1537 1538 1539 1539 1539 1540 1539 1539 1539 1539 1540 1540 1541 1541 1541 1542 1542 1543 1544 1545 1546 1547 1547 1548 1549 1550 1551 1552 1553 1553 1554 1555 1556 1557 1558 1559 1561 1561 1562 1562 1563 1563 1564 1565 1567 1568 1568 1568 1568 1568 1568
1526 1527 1528 1529 1530 1532 1533 1534 1535 1536 1536 1537 1538 1539 1540 1540 1541 1541 1541 1541 1540 1540 1541 1541 1542 1542 1543 1543 1544 1545 1545 1546 1547 1548 1549 1550 1551 1552 1553 1553 1554 1555 1556 1557 1558 1558 1559 1560 1561 1562 1563 1563 1564 1564 1565 1566 1567 1568 1568 1569 1568 1568 1568
1526 1527 1528 1529 1530 1532 1533 1534 1535 1536 1537 1538 1538 1540 1541 1542 1542 1542 1542 1542 1542 1541 1542 1542 1543 1543 1544 1545 1545 1546 1547 1548 1549 1550 1551 1552 1552 1554 1554 1555 1556 1556 1557 1559 1559 1560 1561 1561 1562 1563 1564 1564 1565 1566 1566 1567 1568 1568 1568 1568 1569 1569 1568
1525 1526 1528 1529 1529 1531 1533 1534 1535 1536 1537 1538 1539 1540 1542 1542 1543 1544 1544 1544 1543 1543 1543 1543 1544 1544 1545 1546 1546 1547 1549 1550 1550 1551 1552 1553 1554 1554 1555 1556 1557 1557 1558 1559 1560 1561 1562 1563 1564 1564 1564 1565 1566 1566 1567 1567 1568 1568 1569 1569 1569 1568 1567
1525 1526 1527 1528 1530 1531 1533 1534 1535 1536 1537 1538 1539 1541 1542 1543 1544 1545 1545 1545 1545 1545 1545 1545 1545 1546 1546 1547 1547 1548 1549 1550 1551 1552 1553 1554 1555 1555 1556 1556 1557 1557 1558 1559 1560 1561 1562 1563 1564 1564 1565 1565 1565 1566 1566 1567 1568 1568 1569 1569 1569 1569 1568
1525 1526 1526 1528 1530 1532 1533 1534 1535 1536 1537 1538 1539 1541 1542 1543 1544 1545 1546 1546 1546 1546 1546 1546 1547 1547 1547 1548 1548 1549 1550 1551 1552 1552 1554 1555 1556 1556 1556 1557 1557 1558 1558 1559 1560 1560 1561 1562 1563 1564 1564 1565 1565 1565 1566 1567 1567 1568 1568 1569 1569 1569 1569
1524 1525 1526 1528 1530 1532 1533 1534 1536 1537 1538 1539 1540 1541 1542 1543 1544 1545 1545 1546 1547 1547 1547 1547 1548 1548 1548 1549 1549 1550 1551 1551 1552 1553 1554 1555 1555 1556 1556 1557 1557 1557 1558 1559 1559 1560 1561 1561 1562 1563 1564 1565 1565 1565 1566 1567 1567 1568 1568 1568 1569 1568 1568
1523 1524 1526 1528 1529 1531 1533 1534 1535 1536 1538 1539 1539 1541 1542 1543 1543 1544 1545 1546 1547 1548 1548 1548 1549 1549 1549 1549 1550 1550 1551 1552 1552 1553 1554 1554 1554 1555 1555 1556 1556 1557 1557 1558 1559 1560 1560 1560 1561 1562 1563 1564 1564 1564 1565 1566 1567 1567 1567 1568 1568 1568 1567
1523 1524 1525 1527 1528 1530 1532 1533 1534 1536 1537 1538 1539 1540 1541 1542 1542 1543 1544 1545 1547 1548 1548 1549 1549 1549 1549 1549 1549 1550 1551 1551 1552 1553 1553 1554 1554 1554 1554 1555 1555 1555 1556 1557 1557 1558 1558 1559 1560 1560 1561 1562 1562 1562 1563 1565 1566 1566 1566 1566 1567 1567 1567
1522 1524 1525 1526 1527 1529 1531 1532 1533 1535 1537 1538 1538 1539 1540 1541 1541 1542 1544 1545 1546 1547 1548 1548 1549 1549 1549 1549 1549 1549 1550 1550 1551 1551 1552 1552 1553 1553 1553 1554 1554 1554 1555 1555 1556 1556 1557 1557 1558 1559 1559 1560 1561 1561 1562 1564 1564 1565 1565 1565 1566 1566 1566
1522 1523 1524 1525 1526 1527 1529 1530 1532 1533 1535 1536 1537 1538 1539 1540 1541 1542 1543 1544 1545 1546 1546 1547 1547 1548 1548 1548 1548 1548 1549 1549 1550 1550 1550 1550 1551 1551 1551 1552 1552 1553 1553 1553 1554 1555 1555 1556 1557 1557 1557 1558 1559 1560 1561 1562 1563 1564 1564 1564 1564 1565 1565
1521 1522 1523 1524 1525 1526 1527 1528 1530 1531 1533 1535 1536 1537 1538 1539 1540 1541 1541 1542 1543 1544 1544 1545 1545 1546 1547 1547 1547 1547 1547 1547 1548 1548 1548 1548 1548 1548 1549 1549 1550 1550 1551 1551 1552 1553 1554 1555 1555 1555 1555 1556 1557 1558 1559 1560 1561 1562 1563 1563 1563 1563 1563
1521 1522 1522 1523 1524 1525 1526 1527 1528 1530 1531 1533 1534 1535 1536 1537 1538 1539 1540 1541 1541 1541 1541 1542 1543 1544 1545 1545 1546 1546 1546 1546 1546 1546 1546 1546 1546 1546 1546 1547 1547 1548 1548 1549 1550 1551 1552 1553 1553 1554 1553 1554 1555 1556 1557 1558 1559 1560 1561 1561 1562 1562 1562
1521 1522 1522 1523 1524 1524 1525 1526 1527 1528 1529 1531 1532 1533 1534 1535 1536 1537 1538 1539 1539 1539 1539 1540 1541 1542 1543 1543 1543 1544 1544 1544 1544 1544 1543 1543 1543 1543 1542 1544 1545 1545 1546 1548 1549 1549 1550 1551 1551 1552 1552 1552 1553 1554 1555 1556 1557 1558 1559 1559 1560 1560 1560
1521 1522 1522 1523 1523 1524 1525 1526 1526 1527 1527 1528 1529 1530 1532 1533 1534 1535 1535 1536 1537 1536 1536 1538 1540 1540 1540 1541 1541 1542 1542 1542 1541 1541 1541 1540 1540 1539 1539 1540 1542 1543 1544 1547 1547 1547 1547 1548 1549 1550 1550 1551 1551 1552 1553 1554 1555 1556 1557 1557 1558 1558 1558
1522 1522 1522 1523 1523 1523 1524 1525 1525 1526 1526 1526 1527 1528 1529 1530 1531 1532 1532 1533 1534 1533 1533 1535 1537 1537 1538 1539 1539 1539 1540 1540 1539 1539 1537 1537 1538 1538 1537 1538 1539 1541 1543 1545 1545 1545 1545 1546 1547 1548 1548 1549 1549 1550 1551 1552 1553 1554 1555 1555 1555 1556 1555
1522 1522 1522 1523 1523 1523 1524 1524 1524 1525 1525 1525 1526 1526 1527 1528 1528 1529 1529 1530 1531 1530 1530 1531 1533 1534 1535 1536 1536 1536 1537 1537 1536 1536 1535 1535 1536 1537 1537 1537 1537 1540 1542 1543 1544 1544 1544 1544 1545 1546 1546 1547 1547 1548 1549 1550 1551 1552 1552 1553 1553 1553 1553
1521 1521 1522 1522 1522 1523 1523 1523 1523 1524 1524 1524 1524 1524 1524 1525 1525 1525 1526 1527 1527 1527 1527 1528 1529 1530 1531 1532 1533 1533 1533 1534 1534 1533 1533 1534 1534 1535 1536 1536 1537 1539 1540 1541 1542 1543 1542 1543 1543 1544 1544 1545 1546 1546 1547 1548 1549 1550 1550 1551 1551 1551 1550
1521 1521 1521 1522 1522 1522 1522 1522 1522 1522 1522 1522 1522 1522 1522 1522 1522 1522 1522 1523 1524 1524 1524 1524 1525 1526 1527 1528 1529 1530 1531 1531 1531 1532 1532 1533 1533 1534 1534 1535 1536 1538 1538 1539 1540 1541 1541 1541 1541 1542 1542 1543 1544 1544 1545 1546 1547 1548 1548 1549 1548 1548 1548
1520 1520 1520 1521 1521 1521 1521 1521 1521 1521 1521 1521 1520 1520 1520 1520 1519 1519 1519 1520 1521 1521 1520 1521 1522 1523 1524 1525 1526 1527 1529 1529 1530 1530 1531 1532 1532 1532 1532 1533 1534 1535 1536 1537 1538 1539 1539 1540 1540 1541 1541 1542 1542 1543 1543 1545 1546 1546 1546 1546 1546 1546 1546
1518 1519 1519 1519 1519 1519 1519 1520 1520 1520 1520 1519 1519 1519 1519 1518 1517 1517 1517 1517 1518 1518 1518 1519 1520 1521 1521 1522 1524 1525 1527 1528 1529 1529 1530 1531 1531 1531 1531 1532 1533 1533 1534 1535 1536 1537 1537 1538 1539 1541 1541 1542 1542 1542 1542 1542 1544 1544 1544 1544 1544 1543 1543
1517 1517 1517 1517 1517 1518 1518 1518 1518 1518 1518 1518 1518 1517 1517 1516 1516 1515 1515 1515 1516 1516 1517 1518 1519 1519 1520 1521 1522 1523 1525 1526 1528 1529 1529 1530 1530 1529 1530 1531 1531 1532 1533 1534 1535 1535 1536 1537 1538 1540 1541 1542 1542 1542 1541 1541 1542 1542 1542 1542 1542 1541 1540
1515 1515 1515 1515 1515 1515 1515 1515 1516 1516 1516 1516 1515 1514 1514 1514 1514 1513 1513 1514 1514 1515 1515 1516 1517 1518 1519 1520 1521 1522 1523 1525 1526 1527 1528 1529 1529 1529 1529 1530 1531 1531 1532 1533 1533 1534 1535 1536 1537 1538 1539 1540 1540 1540 1539 1539 1540 1540 1540 1540 1540 1539 1539
1512 1511 1511 1512 1512 1512 1512 1513 1513 1513 1513 1513 1513 1512 1511 1512 1512 1511 1512 1513 1513 1513 1513 1514 1515 1516 1517 1518 1519 1520 1521 1522 1524 1526 1527 1528 1529 1528 1527 1528 1530 1530 1531 1531 1532 1533 1534 1535 1536 1536 1537 1538 1539 1539 1539 1538 1538 1538 1538 1538 1539 1538 1538
1509 1508 1508 1508 1508 1508 1509 1509 1510 1510 1510 1510 1510 1510 1509 1509 1510 1509 1510 1511 1511 1511 1511 1513 1514 1515 1516 1516 1517 1518 1519 1520 1522 1523 1525 1526 1527 1526 1526 1527 1529 1529 1530 1530 1531 1532 1533 1533 1534 1535 1536 1536 1537 1537 1537 1537 1536 1536 1537 1537 1537 1536 1536
1505 1505 1505 1505 1505 1505 1505 1506 1506 1507 1507 1506 1506 1507 1507 1507 1508 1507 1507 1508 1509 1509 1509 1510 1512 1513 1514 1514 1515 1516 1517 1518 1520 1521 1523 1525 1525 1524 1525 1527 1528 1528 1528 1529 1530 1530 1531 1532 1533 1533 1534 1534 1535 1536 1536 1536 1535 1535 1535 1535 1535 1534 1534